User: anonymous   Login
Location: Unspecified
(0.0000°N, 0.0000°E)
Time: 07:57:43
(UTC+01:00)
Language:

Ariane 42L R/B - Orbit

View from above orbital plane
View from above orbital plane
View from above satellite
View from above satellite

Ground track
Ground track

The orbit data is extracted from the following two-line orbital elements,

1 26299U 00020B   14297.11599781  .00005497  00000-0  16889-2 0   859
2 26299 007.5307 044.2357 6056610 053.3712 331.8234 03.93500831179892
Epoch (UTC): 24 October 2014 02:47:02
Eccentricity: 0.6056610
inclination: 7.5307°
perigee height: 305 km
apogee height: 20833 km
right ascension of ascending node: 44.2357°
argument of perigee: 53.3712°
revolutions per day: 3.93500831
mean anomaly at epoch: 331.8234°
orbit number at epoch: 17989

The dashed part of the orbit path shows where the satellite is in the earth's shadow,  

DLR